This demonstration page uses our WeatherBlox Daily Observations layout. Learn more.

Left ArrowRight Arrow

Hourly Observations for April 18, 2020

Temp ( °F °C ) Dew Point ( °F °C ) Humidity (%) Winds ( mph kmh ) Pressure ( in mb ) Visibility ( mi km ) Precip ( " mm )
12:54 am 00:54 Clear 38 3.3 28 -2.2 68 68 SSW 10 17 30.05 1018 10 16.0934 0 0
1:54 am 01:54 Clear 38 3.3 28 -2.2 68 68 SSW 10 17 30.03 1017 10 16.0934 0 0
2:54 am 02:54 Clear 37 2.8 28 -2.2 70 70 SSW 10 17 30 1016 10 16.0934 0 0
3:54 am 03:54 Clear 37 2.8 28 -2.2 70 70 SSW 14 22 29.99 1016 10 16.0934 0 0
4:54 am 04:54 Clear 37 2.8 29 -1.7 73 73 SSW 14 22 29.97 1015 10 16.0934 0 0
5:54 am 05:54 Clear 38 3.3 30 -1.1 73 73 SSW 14 22 29.96 1015 10 16.0934 0 0
6:54 am 06:54 Sunny 38 3.3 30 -1.1 73 73 SSW 14 22 29.95 1014 10 16.0934 0 0
7:54 am 07:54 Sunny 40 4.4 31 -0.6 70 70 SSW 15 24 29.94 1014 10 16.0934 0 0
8:54 am 08:54 Sunny 45 7.2 32 0 61 61 SSW 15 24 29.93 1014 10 16.0934 0 0
9:54 am 09:54 Sunny 51 10.6 34 1.1 52 52 SW 18 30 29.9 1013 10 16.0934 0 0
10:54 am 10:54 Sunny 57 13.9 36 2.2 45 45 SW 18 30 29.88 1012 10 16.0934 0 0
11:54 am 11:54 Sunny 62 16.7 37 2.8 40 40 SW 22 35 29.85 1011 10 16.0934 0 0
12:54 pm 12:54 Sunny 65 18.3 38 3.3 37 37 SW 25 41 29.82 1010 10 16.0934 0 0
1:54 pm 13:54 Sunny 70 21.1 38 3.3 31 31 SW 22 35 29.78 1008 10 16.0934 0 0
2:54 pm 14:54 Sunny 73 22.8 33 0.6 23 23 SW 18 30 29.74 1007 10 16.0934 0 0
3:54 pm 15:54 Sunny 73 22.8 29 -1.7 19 19 SW 18 30 29.72 1006 10 16.0934 0 0
4:54 pm 16:54 Sunny 73 22.8 28 -2.2 19 19 SSW 22 35 29.69 1006 10 16.0934 0 0
5:54 pm 17:54 Sunny 73 22.8 30 -1.1 20 20 SSW 21 33 29.67 1005 10 16.0934 0 0
6:54 pm 18:54 Sunny 70 21.1 33 0.6 26 26 SSW 13 20 29.68 1005 10 16.0934 0 0
7:54 pm 19:54 Sunny 65 18.3 35 1.7 33 33 SSW 10 17 29.69 1005 10 16.0934 0 0
8:54 pm 20:54 Clear 59 15 36 2.2 42 42 S 10 17 29.72 1006 10 16.0934 0 0
9:54 pm 21:54 Clear 57 13.9 37 2.8 47 47 SSW 13 20 29.75 1007 10 16.0934 0 0
10:54 pm 22:54 Clear 60 15.6 34 1.1 38 38 W 13 20 29.79 1009 10 16.0934 0 0
11:54 pm 23:54 Clear 57 13.9 35 1.7 44 44 WSW 5 7 29.8 1009 10 16.0934 0 0

Powered by AerisWeather